When you browse on this site, cookies collect data to enhance your experience and personalize the content and advertising you see.
Visit our Privacy Policy to learn more. By continuing to use the site, you agree to this use of cookies and data.
  • en Suisse
  • Liste des pays
  • À 7 jours
  • Température de l'eau
  • Carte météo
  • Widgets météo
  • user-avatar
    Se connecter

    Météo par heure à Reading

    Ce jour, 23 Septembre, Lundi

    Heure Température Précipitation Vent Pression Humidité
    00:00 +13°C° 0 mm 3 m/s 751 mmHg 94%
    01:00 +13°C° 0 mm 4 m/s 751 mmHg 95%
    02:00 +12°C° 0 mm 4 m/s 752 mmHg 95%
    03:00 +12°C° 0 mm 5 m/s 752 mmHg 95%
    04:00 +12°C° 0 mm 4 m/s 752 mmHg 95%
    05:00 +12°C° 0 mm 4 m/s 753 mmHg 94%
    06:00 +11°C° 0 mm 4 m/s 753 mmHg 93%
    07:00 +13°C° 0 mm 4 m/s 754 mmHg 86%
    08:00 +14°C° 0 mm 4 m/s 754 mmHg 80%
    09:00 +16°C° 0 mm 5 m/s 754 mmHg 73%
    10:00 +17°C° 0 mm 5 m/s 754 mmHg 70%
    11:00 +17°C° 0 mm 6 m/s 754 mmHg 67%
    12:00 +19°C° 0 mm 6 m/s 755 mmHg 64%
    13:00 +19°C° 0 mm 6 m/s 754 mmHg 65%
    14:00 +19°C° 0 mm 6 m/s 754 mmHg 66%
    15:00 +18°C° 0 mm 7 m/s 754 mmHg 67%
    16:00 +17°C° 0.2 mm 6 m/s 753 mmHg 73%
    17:00 +16°C° 0.2 mm 6 m/s 753 mmHg 79%
    18:00 +15°C° 0.2 mm 6 m/s 753 mmHg 84%
    19:00 +15°C° 0.5 mm 6 m/s 753 mmHg 87%
    20:00 +16°C° 0.5 mm 6 m/s 753 mmHg 90%
    21:00 +16°C° 0.5 mm 6 m/s 753 mmHg 92%
    22:00 +16°C° 0.1 mm 6 m/s 752 mmHg 93%
    23:00 +16°C° 0.1 mm 6 m/s 752 mmHg 93%

    Demain, 24 Septembre, Mardi

    Heure Température Précipitation Vent Pression Humidité
    00:00 +16°C° 0.1 mm 5 m/s 751 mmHg 93%
    01:00 +17°C° 0.2 mm 5 m/s 751 mmHg 93%
    02:00 +17°C° 0.2 mm 5 m/s 750 mmHg 94%
    03:00 +17°C° 0.2 mm 5 m/s 749 mmHg 94%
    04:00 +17°C° 0.9 mm 6 m/s 749 mmHg 94%
    05:00 +16°C° 0.9 mm 6 m/s 748 mmHg 94%
    06:00 +16°C° 0.9 mm 6 m/s 747 mmHg 94%
    07:00 +16°C° 4.1 mm 6 m/s 747 mmHg 93%
    08:00 +16°C° 4.1 mm 6 m/s 747 mmHg 92%
    09:00 +16°C° 4.1 mm 6 m/s 746 mmHg 91%
    10:00 +17°C° 1.1 mm 6 m/s 746 mmHg 87%
    11:00 +19°C° 1.1 mm 6 m/s 746 mmHg 83%
    12:00 +19°C° 1.1 mm 6 m/s 746 mmHg 79%
    13:00 +19°C° 0.4 mm 6 m/s 746 mmHg 76%
    14:00 +19°C° 0.4 mm 6 m/s 746 mmHg 74%
    15:00 +18°C° 0.4 mm 7 m/s 746 mmHg 72%
    16:00 +17°C° 0 mm 6 m/s 747 mmHg 75%
    17:00 +16°C° 0 mm 5 m/s 747 mmHg 78%
    18:00 +15°C° 0 mm 5 m/s 747 mmHg 81%
    19:00 +14°C° 0 mm 5 m/s 747 mmHg 82%
    20:00 +14°C° 0 mm 5 m/s 747 mmHg 83%
    21:00 +14°C° 0 mm 5 m/s 747 mmHg 85%
    22:00 +14°C° 0.3 mm 5 m/s 747 mmHg 87%
    23:00 +14°C° 0.3 mm 5 m/s 747 mmHg 88%

    Après-demain, 25 Septembre, Mercredi

    Heure Température Précipitation Vent Pression Humidité
    00:00 +13°C° 0.3 mm 5 m/s 746 mmHg 90%
    01:00 +14°C° 0.6 mm 5 m/s 746 mmHg 91%
    02:00 +14°C° 0.6 mm 5 m/s 746 mmHg 91%
    03:00 +14°C° 0.6 mm 5 m/s 745 mmHg 91%
    04:00 +14°C° 1.1 mm 6 m/s 745 mmHg 91%
    05:00 +14°C° 1.1 mm 6 m/s 745 mmHg 91%
    06:00 +14°C° 1.1 mm 7 m/s 744 mmHg 92%
    07:00 +14°C° 0.7 mm 7 m/s 745 mmHg 91%
    08:00 +15°C° 0.7 mm 7 m/s 745 mmHg 90%
    09:00 +15°C° 0.7 mm 7 m/s 745 mmHg 89%
    10:00 +16°C° 0.2 mm 7 m/s 746 mmHg 86%
    11:00 +17°C° 0.2 mm 7 m/s 746 mmHg 83%
    12:00 +18°C° 0.2 mm 7 m/s 747 mmHg 79%
    13:00 +18°C° 0.2 mm 7 m/s 747 mmHg 79%
    14:00 +17°C° 0.2 mm 7 m/s 747 mmHg 78%
    15:00 +17°C° 0.2 mm 7 m/s 747 mmHg 77%
    16:00 +17°C° 0 mm 6 m/s 748 mmHg 80%
    17:00 +16°C° 0 mm 5 m/s 748 mmHg 83%
    18:00 +15°C° 0 mm 4 m/s 748 mmHg 86%
    19:00 +15°C° 0 mm 4 m/s 748 mmHg 89%
    20:00 +15°C° 0 mm 4 m/s 748 mmHg 92%
    21:00 +14°C° 0 mm 4 m/s 749 mmHg 94%
    22:00 +15°C° 0.5 mm 5 m/s 748 mmHg 94%
    23:00 +15°C° 0.5 mm 5 m/s 748 mmHg 94%

    26 Septembre, Jeudi

    Heure Température Précipitation Vent Pression Humidité
    00:00 +16°C° 0.5 mm 6 m/s 748 mmHg 94%
    01:00 +16°C° 0.1 mm 6 m/s 748 mmHg 93%
    02:00 +16°C° 0.1 mm 6 m/s 748 mmHg 92%
    03:00 +16°C° 0.1 mm 6 m/s 747 mmHg 91%
    04:00 +16°C° 0.4 mm 7 m/s 747 mmHg 91%
    05:00 +16°C° 0.4 mm 7 m/s 747 mmHg 91%
    06:00 +16°C° 0.4 mm 7 m/s 747 mmHg 91%
    07:00 +16°C° 0.9 mm 7 m/s 748 mmHg 90%
    08:00 +16°C° 0.9 mm 6 m/s 748 mmHg 88%
    09:00 +16°C° 0.9 mm 5 m/s 748 mmHg 86%
    10:00 +17°C° 0.1 mm 5 m/s 748 mmHg 82%
    11:00 +17°C° 0.1 mm 6 m/s 749 mmHg 78%
    12:00 +17°C° 0.1 mm 6 m/s 749 mmHg 74%
    13:00 +17°C° 0.1 mm 7 m/s 749 mmHg 72%
    14:00 +17°C° 0.1 mm 7 m/s 749 mmHg 70%
    15:00 +17°C° 0.1 mm 7 m/s 749 mmHg 68%
    16:00 +16°C° 0.1 mm 7 m/s 749 mmHg 71%
    17:00 +16°C° 0.1 mm 6 m/s 749 mmHg 75%
    18:00 +15°C° 0.1 mm 6 m/s 750 mmHg 78%
    19:00 +14°C° 0 mm 6 m/s 750 mmHg 80%
    20:00 +14°C° 0 mm 6 m/s 750 mmHg 81%
    21:00 +14°C° 0 mm 5 m/s 751 mmHg 83%
    22:00 +13°C° 0 mm 5 m/s 750 mmHg 85%
    23:00 +13°C° 0 mm 5 m/s 750 mmHg 86%

    27 Septembre, Vendredi

    Heure Température Précipitation Vent Pression Humidité
    00:00 +13°C° 0 mm 4 m/s 750 mmHg 88%
    01:00 +12°C° 0 mm 4 m/s 750 mmHg 87%
    02:00 +12°C° 0 mm 4 m/s 750 mmHg 87%
    03:00 +12°C° 0 mm 4 m/s 749 mmHg 87%
    04:00 +12°C° 0 mm 5 m/s 749 mmHg 86%
    05:00 +12°C° 0 mm 5 m/s 749 mmHg 86%
    06:00 +12°C° 0 mm 5 m/s 749 mmHg 85%
    07:00 +13°C° 0 mm 5 m/s 749 mmHg 81%
    08:00 +14°C° 0 mm 6 m/s 749 mmHg 78%
    09:00 +15°C° 0 mm 7 m/s 749 mmHg 74%
    10:00 +15°C° 0.2 mm 7 m/s 749 mmHg 71%
    11:00 +16°C° 0.2 mm 8 m/s 749 mmHg 69%
    12:00 +17°C° 0.2 mm 9 m/s 749 mmHg 66%
    13:00 +16°C° 0.2 mm 9 m/s 749 mmHg 67%
    14:00 +16°C° 0.2 mm 8 m/s 749 mmHg 67%
    15:00 +16°C° 0.2 mm 8 m/s 749 mmHg 68%
    16:00 +15°C° 0 mm 8 m/s 749 mmHg 71%
    17:00 +14°C° 0 mm 7 m/s 749 mmHg 74%
    18:00 +13°C° 0 mm 6 m/s 748 mmHg 77%
    19:00 +12°C° 0.1 mm 7 m/s 749 mmHg 77%
    20:00 +12°C° 0.1 mm 7 m/s 749 mmHg 78%
    21:00 +12°C° 0.1 mm 8 m/s 749 mmHg 78%
    22:00 +12°C° 0.4 mm 7 m/s 749 mmHg 81%
    23:00 +12°C° 0.4 mm 7 m/s 749 mmHg 84%

    28 Septembre, Samedi

    Heure Température Précipitation Vent Pression Humidité
    00:00 +12°C° 0.4 mm 7 m/s 749 mmHg 87%
    01:00 +12°C° 0.5 mm 7 m/s 749 mmHg 87%
    02:00 +12°C° 0.5 mm 7 m/s 749 mmHg 87%
    03:00 +12°C° 0.5 mm 7 m/s 749 mmHg 88%
    04:00 +13°C° 0.2 mm 6 m/s 749 mmHg 88%
    05:00 +13°C° 0.2 mm 6 m/s 749 mmHg 89%
    06:00 +12°C° 0.2 mm 5 m/s 749 mmHg 89%
    07:00 +13°C° 0.2 mm 6 m/s 750 mmHg 86%
    08:00 +14°C° 0.2 mm 6 m/s 750 mmHg 82%
    09:00 +14°C° 0.2 mm 7 m/s 750 mmHg 79%
    10:00 +15°C° 0.2 mm 7 m/s 750 mmHg 77%
    11:00 +15°C° 0.2 mm 7 m/s 751 mmHg 75%
    12:00 +16°C° 0.2 mm 7 m/s 751 mmHg 73%
    13:00 +15°C° 0.3 mm 7 m/s 751 mmHg 75%
    14:00 +15°C° 0.3 mm 7 m/s 751 mmHg 77%
    15:00 +15°C° 0.3 mm 7 m/s 751 mmHg 79%
    16:00 +14°C° 0.2 mm 7 m/s 751 mmHg 81%
    17:00 +14°C° 0.2 mm 6 m/s 751 mmHg 83%
    18:00 +13°C° 0.2 mm 5 m/s 751 mmHg 85%
    19:00 +13°C° 0 mm 5 m/s 751 mmHg 87%
    20:00 +12°C° 0 mm 5 m/s 751 mmHg 89%
    21:00 +12°C° 0 mm 5 m/s 752 mmHg 91%
    22:00 +12°C° 0 mm 5 m/s 751 mmHg 91%
    23:00 +12°C° 0 mm 5 m/s 751 mmHg 91%
    Voir plus